EA4BPO Weather Reports


time (UTC)temp
F
wind
direction
speed
knots
gust
knots
rain 1hr
in
rain 24hr
in
rain mn
in
humidity
%
barometer
mb
20260503072502 55 183 2.6 5.2 0.00 0.87 0.32 98 1013.5
20260503072002 55 185 2.6 3.5 0.00 0.89 0.00 98 1013.4
20260503071523 55 194 2.6 3.5 0.00 0.89 0.00 98 1013.3
20260503071002 54 189 2.6 5.2 0.00 0.89 0.00 98 1013.3
20260503070523 54 190 2.6 5.2 0.00 0.89 0.00 98 1013.4
20260503055002 55 160 0.9 2.6 0.00 0.95 0.00 95 1013.1
20260503054502 55 144 0.9 2.6 0.00 0.95 0.00 95 1013.0
20260503054002 55 131 0.9 1.7 0.00 0.95 0.00 95 1013.0
20260503053502 55 121 0.9 2.6 0.00 0.95 0.00 95 1013.0
20260503053023 55 109 0.9 2.6 0.00 0.95 0.00 96 1012.9
20260503052502 55 110 0.9 1.7 0.00 0.95 0.00 96 1012.9
20260503052002 55 118 0.9 1.7 0.00 0.95 0.00 96 1013.3
20260503051523 55 107 0.0 1.7 0.00 0.95 0.00 96 1013.1
20260503051002 55 85 0.0 0.9 0.00 0.95 0.00 96 1013.0
20260503050502 55 73 0.0 1.7 0.00 0.95 0.00 96 1013.2
20260503050002 55 70 0.9 1.7 0.00 0.95 0.00 96 1013.0
20260503045502 55 63 0.9 1.7 0.00 0.95 0.00 96 1013.1
20260503045002 55 45 0.0 0.9 0.00 0.95 0.00 96 1012.9
20260503044523 55 41 0.0 0.9 0.00 0.95 0.00 96 1013.3
20260503044023 55 47 0.0 0.9 0.00 0.95 0.00 96 1013.2
20260503043523 55 46 0.0 0.9 0.00 0.95 0.00 96 1013.1
20260503043002 55 60 0.0 0.9 0.00 0.95 0.00 96 1013.1
20260503042523 55 71 0.9 3.5 0.00 0.95 0.00 96 1013.1
20260503042002 55 76 1.7 3.5 0.00 0.95 0.00 96 1012.9
20260503041523 55 78 1.7 3.5 0.00 0.95 0.00 96 1013.2
20260503041023 55 74 1.7 3.5 0.00 0.95 0.00 96 1013.2
20260503040502 54 72 2.6 3.5 0.00 0.95 0.00 96 1013.1
20260503040002 55 72 2.6 3.5 0.00 0.95 0.00 96 1013.2
20260502170503 61 235 7.8 14.8 0.00 0.95 0.95 74 1014.8
20260502164003 61 242 5.2 9.6 0.00 0.95 0.95 73 1014.7
20260502163503 61 237 5.2 9.6 0.00 0.95 0.95 74 1014.9
20260502163003 61 234 5.2 9.6 0.00 0.95 0.95 73 1014.6
20260502162503 61 234 6.1 12.2 0.00 0.95 0.95 74 1014.8
20260502162003 62 234 7.0 12.2 0.00 0.95 0.95 74 1015.0
20260502161503 62 231 7.0 13.9 0.00 0.95 0.95 73 1014.8
20260502161003 62 229 7.8 13.9 0.00 0.95 0.95 74 1014.9
20260502160503 62 224 8.7 13.9 0.00 0.95 0.95 74 1014.8
20260502152003 66 192 7.8 15.6 0.00 0.95 0.95 68 1015.0
20260502151503 66 189 8.7 18.2 0.00 0.95 0.95 69 1014.8
20260502151003 67 191 8.7 18.2 0.00 0.95 0.95 67 1015.0
20260502150503 67 180 7.8 15.6 0.00 0.95 0.95 68 1015.1
20260502130503 57 257 0.9 2.6 0.63 0.94 0.94 97 1016.6
20260502123503 57 243 7.8 26.9 0.26 0.57 0.57 96 1017.4
20260502123003 63 184 3.5 7.8 0.00 0.31 0.31 78 1017.1
20260502122503 63 145 4.3 8.7 0.00 0.31 0.31 78 1016.5
20260502122003 63 148 4.3 8.7 0.00 0.31 0.31 77 1016.6
20260502121524 63 170 4.3 9.6 0.00 0.31 0.31 78 1016.9
20260502121003 63 166 5.2 11.3 0.00 0.31 0.31 78 1017.1
20260502120503 63 158 6.1 11.3 0.00 0.31 0.31 78 1016.9
20260502115503 64 153 4.3 9.6 0.00 0.31 0.31 78 1017.2
20260502115024 63 152 4.3 9.6 0.00 0.31 0.31 80 1017.2
20260502114503 63 165 4.3 9.6 0.00 0.31 0.31 80 1017.3
20260502114003 62 168 4.3 9.6 0.00 0.31 0.31 80 1017.3
20260502113524 63 170 4.3 8.7 0.00 0.31 0.31 81 1017.5
20260502113024 62 177 4.3 8.7 0.00 0.31 0.31 81 1017.7
20260502112503 62 191 4.3 8.7 0.00 0.31 0.31 81 1017.7
20260502112024 62 184 5.2 11.3 0.00 0.31 0.31 82 1017.6
20260502111503 61 187 5.2 11.3 0.00 0.31 0.31 82 1017.8
20260502111003 61 184 4.3 8.7 0.00 0.31 0.31 84 1017.8
20260502110503 61 175 3.5 8.7 0.00 0.31 0.31 86 1018.1
20260502110003 61 180 3.5 7.0 0.00 0.31 0.31 86 1017.9
20260502105503 61 165 3.5 7.8 0.00 0.31 0.31 88 1018.1
20260502105003 60 164 4.3 7.8 0.00 0.31 0.31 89 1018.0
20260502104503 60 172 5.2 9.6 0.00 0.31 0.31 90 1018.3
20260502104003 60 171 5.2 9.6 0.00 0.31 0.31 91 1018.2
20260502103503 59 158 4.3 7.8 0.00 0.31 0.31 93 1018.4
20260502103003 59 142 3.5 8.7 0.00 0.31 0.31 94 1018.1
20260502102503 59 141 3.5 8.7 0.00 0.31 0.31 94 1018.2
20260502102003 59 137 3.5 8.7 0.07 0.31 0.31 94 1018.4
20260502101503 59 132 4.3 8.7 0.07 0.31 0.31 95 1018.6
20260502101003 58 138 4.3 8.7 0.07 0.31 0.31 95 1018.7
20260502100503 58 140 3.5 7.0 0.07 0.31 0.31 96 1018.7
20260502091503 58 136 0.9 5.2 0.02 0.24 0.24 97 1018.6
20260502091003 58 111 0.9 2.6 0.02 0.24 0.24 97 1018.4
20260502090503 58 116 0.9 3.5 0.02 0.24 0.24 97 1018.2